Weather History for Louisville, KY

Change the Weather History Date:

Wednesday, November 2, 2011

  Actual Average Record
Temperature  
Mean Temperature 57 °F 54 °F  
Max Temperature 71 °F 64 °F 82 °F (1987)
Min Temperature 43 °F 44 °F 22 °F (1951)
Degree Days  
Heating Degree Days 8 11  
Month to date heating degree days 20 22  
Since 1 July heating degree days 291 264  
Cooling Degree Days 0 0  
Month to date cooling degree days 0 0  
Year to date cooling degree days 1849 1609  
Growing Degree Days 6 (Base 50)    
Moisture  
Dew Point 35 °F    
Average Humidity 47    
Maximum Humidity 65    
Minimum Humidity 28    
Precipitation  
Precipitation 0.00 in 0.11 in 2.23 in (1955)
Month to date precipitation 0.00 0.23  
Year to date precipitation 55.19 37.72  
Snow  
Snow 0.00 in 0.00 in 12.90 in (1966)
Month to date snowfall 0.0 0.0  
Since 1 July snowfall 0.0 0.1  
Since 1 September snowfall 0.0 0.1  
Snow Depth 0.00 in    
Sea Level Pressure  
Sea Level Pressure 30.20 in    
Wind  
Wind Speed 9 mph (SSE)    
Max Wind Speed 18 mph    
Max Gust Speed 23 mph    
Visibility 10 miles    
Events      
T = Trace of Precipitation, MM = Missing Value Source: NWS Daily Summary

Daily Weather History Graph

Daily Weather History Graph

Search for Another Location

Airport:

Trip Planner

Search our weather history database for the weather conditions in past years. The results will help you decide how hot, cold, wet, or windy it might be!

Date:

Astronomy

Nov. 02, 2011 Rise Set
Actual Time 8:09 AM EDT 6:42 PM EDT
Civil Twilight 7:42 AM EDT 7:10 PM EDT
Nautical Twilight 7:11 AM EDT 7:41 PM EDT
Astronomical Twilight 6:40 AM EDT 8:12 PM EDT
Moon 2:29 PM EDT (11/2) 12:26 AM EDT (11/2)
Length of Visible Light 11h 27m
Length of Day
10h 33m
Waxing Crescent, 50% of the Moon is Illuminated
Nov 2
Waxing Crescent
Nov 2
First Quarter
Nov 10
Full
Nov 18
Last Quarter
Nov 25
New

Hourly Weather History & Observations

Time (EDT) Temp. Windchill Dew Point Humidity Pressure Visibility Wind Dir Wind Speed Gust Speed Precip Events Conditions
12:56 AM 50.0 °F - 34.0 °F 54% 30.22 in 10.0 mi SE 5.8 mph - N/A   Clear
1:56 AM 50.0 °F - 33.1 °F 52% 30.23 in 10.0 mi SE 4.6 mph - N/A   Clear
2:56 AM 48.0 °F - 33.1 °F 56% 30.23 in 10.0 mi SE 4.6 mph - N/A   Clear
3:56 AM 46.0 °F 42.5 °F 33.1 °F 61% 30.23 in 10.0 mi SE 6.9 mph - N/A   Clear
4:56 AM 46.9 °F - 33.1 °F 59% 30.25 in 10.0 mi SE 6.9 mph - N/A   Clear
5:56 AM 44.1 °F 40.8 °F 33.1 °F 65% 30.26 in 10.0 mi SE 5.8 mph - N/A   Clear
6:56 AM 44.1 °F 40.8 °F 33.1 °F 65% 30.27 in 10.0 mi SE 5.8 mph - N/A   Partly Cloudy
7:56 AM 44.1 °F 40.1 °F 33.1 °F 65% 30.28 in 10.0 mi SE 6.9 mph - N/A   Partly Cloudy
8:56 AM 45.0 °F 40.6 °F 34.0 °F 65% 30.29 in 10.0 mi SE 8.1 mph - N/A   Partly Cloudy
9:56 AM 50.0 °F - 35.1 °F 57% 30.30 in 10.0 mi SE 6.9 mph - N/A   Partly Cloudy
10:56 AM 59.0 °F - 36.0 °F 42% 30.29 in 10.0 mi South 8.1 mph - N/A   Partly Cloudy
11:56 AM 64.0 °F - 37.0 °F 37% 30.27 in 10.0 mi SW 11.5 mph - N/A   Partly Cloudy
12:56 PM 66.9 °F - 37.0 °F 33% 30.24 in 10.0 mi SW 13.8 mph - N/A   Partly Cloudy
1:56 PM 69.1 °F - 37.0 °F 31% 30.20 in 10.0 mi SSW 11.5 mph 18.4 mph N/A   Mostly Cloudy
2:56 PM 69.1 °F - 35.1 °F 29% 30.17 in 10.0 mi SW 18.4 mph - N/A   Overcast
3:56 PM 69.1 °F - 35.1 °F 29% 30.15 in 10.0 mi South 17.3 mph 21.9 mph N/A   Overcast
4:56 PM 69.1 °F - 36.0 °F 30% 30.12 in 10.0 mi South 13.8 mph 19.6 mph N/A   Overcast
5:56 PM 66.9 °F - 36.0 °F 32% 30.11 in 10.0 mi South 15.0 mph - N/A   Overcast
6:56 PM 63.0 °F - 37.0 °F 38% 30.12 in 10.0 mi South 10.4 mph 20.7 mph N/A   Mostly Cloudy
7:56 PM 60.1 °F - 37.9 °F 44% 30.11 in 10.0 mi SSE 11.5 mph - N/A   Mostly Cloudy
8:56 PM 60.1 °F - 37.9 °F 44% 30.11 in 10.0 mi South 6.9 mph - N/A   Mostly Cloudy
9:56 PM 57.9 °F - 37.9 °F 47% 30.10 in 10.0 mi ESE 4.6 mph - N/A   Mostly Cloudy
10:56 PM 55.9 °F - 37.9 °F 51% 30.09 in 10.0 mi SE 3.5 mph - N/A   Mostly Cloudy
11:56 PM 53.1 °F - 37.9 °F 57% 30.09 in 10.0 mi ESE 4.6 mph - N/A   Mostly Cloudy